Location: Habighorst
(52.7089°N, 10.2278°E)
Time: 23:52:22
(UTC+00:00)

Cosmos 1943 Rocket - Visible Passes

Search period start: 18 April 2026 00:00
Search period end: 28 April 2026 00:00
Orbit: 809 x 844 km, 71.0° (Epoch: 18 April)

Date Brightness Start Highest point End Pass type
(mag) Time Alt. Az. Time Alt. Az. Time Alt. Az.
18 Apr 3.4 19:30:24 10° NW 19:35:38 39° WSW 19:40:50 10° S visible
19 Apr 3.3 19:10:42 10° NW 19:16:03 44° WSW 19:21:22 10° S visible
21 Apr 5.1 20:18:54 10° W 20:19:19 10° W 20:19:45 10° W visible
22 Apr 4.9 19:57:55 10° WNW 19:59:50 12° W 20:01:45 10° WSW visible
23 Apr 4.9 19:37:41 10° WNW 19:40:20 13° W 19:42:57 10° SW visible
24 Apr 4.8 19:17:39 10° WNW 19:20:49 15° W 19:23:58 10° SW visible
